| time (UTC) | temp F | wind direction | speed MPH | gust MPH | rain 1hr in | rain 24hr in | rain mn in | humidity % | barometer mb |
| 20260505001555 | 53 | 213 | 10.0 | 16.0 | 0.00 | 0.18 | 0.05 | 64 | 1007.3 |
| 20260505000107 | 54 | 225 | 7.0 | 17.0 | 0.00 | 0.18 | 0.05 | 64 | 1006.9 |
| 20260504234550 | 54 | 258 | 12.0 | 18.0 | 0.00 | 0.24 | 0.05 | 62 | 1006.7 |
| 20260504233100 | 55 | 248 | 10.0 | 18.0 | 0.00 | 0.24 | 0.05 | 61 | 1006.4 |
| 20260504231558 | 55 | 254 | 7.0 | 17.0 | 0.00 | 0.24 | 0.05 | 60 | 1006.4 |
| 20260504230105 | 56 | 221 | 6.0 | 20.0 | 0.00 | 0.24 | 0.05 | 58 | 1006.2 |
| 20260504224552 | 56 | 238 | 7.0 | 19.0 | 0.00 | 0.33 | 0.05 | 57 | 1005.9 |
| 20260504223051 | 56 | 202 | 8.0 | 25.0 | 0.00 | 0.33 | 0.05 | 56 | 1005.9 |
| 20260504221603 | 58 | 227 | 15.0 | 25.0 | 0.00 | 0.33 | 0.05 | 52 | 1005.9 |
| 20260504220103 | 58 | 226 | 12.0 | 24.0 | 0.00 | 0.33 | 0.05 | 52 | 1005.6 |
| 20260504214556 | 58 | 281 | 16.0 | 28.0 | 0.00 | 0.44 | 0.05 | 50 | 1005.9 |
| 20260504213050 | 58 | 261 | 17.0 | 27.0 | 0.00 | 0.44 | 0.05 | 49 | 1006.0 |
| 20260504211550 | 59 | 212 | 15.0 | 27.0 | 0.00 | 0.44 | 0.05 | 50 | 1005.8 |
| 20260504210054 | 60 | 242 | 16.0 | 32.0 | 0.00 | 0.44 | 0.05 | 49 | 1005.6 |
| 20260504204600 | 61 | 223 | 18.0 | 39.0 | 0.00 | 0.60 | 0.05 | 48 | 1005.6 |
| 20260504203101 | 61 | 226 | 20.0 | 36.0 | 0.00 | 0.60 | 0.05 | 49 | 1005.2 |
| 20260504201552 | 61 | 240 | 17.0 | 34.0 | 0.00 | 0.60 | 0.05 | 51 | 1005.0 |
| 20260504200054 | 61 | 273 | 21.0 | 41.0 | 0.00 | 0.60 | 0.05 | 52 | 1004.8 |
| 20260504194553 | 61 | 218 | 13.0 | 28.0 | 0.00 | 0.96 | 0.05 | 51 | 1004.7 |
| 20260504193056 | 61 | 247 | 17.0 | 31.0 | 0.00 | 0.96 | 0.05 | 48 | 1004.6 |
| 20260504191606 | 61 | 250 | 16.0 | 27.0 | 0.00 | 0.96 | 0.05 | 45 | 1004.7 |
| 20260504190112 | 61 | 228 | 16.0 | 31.0 | 0.00 | 0.96 | 0.05 | 44 | 1004.8 |
| 20260504184557 | 60 | 233 | 18.0 | 28.0 | 0.00 | 1.27 | 0.05 | 43 | 1004.4 |
| 20260504183107 | 60 | 216 | 14.0 | 29.0 | 0.00 | 1.27 | 0.05 | 43 | 1004.5 |
| 20260504181600 | 60 | 205 | 13.0 | 27.0 | 0.00 | 1.27 | 0.05 | 39 | 1004.7 |
| 20260504180051 | 60 | 244 | 19.0 | 33.0 | 0.00 | 1.27 | 0.05 | 37 | 1004.6 |
| 20260504174554 | 60 | 213 | 20.0 | 33.0 | 0.00 | 1.55 | 0.05 | 39 | 1004.7 |
| 20260504173050 | 59 | 251 | 19.0 | 39.0 | 0.00 | 1.55 | 0.05 | 42 | 1004.5 |
| 20260504171553 | 60 | 225 | 16.0 | 35.0 | 0.00 | 1.55 | 0.05 | 39 | 1004.6 |
| 20260504081551 | 42 | 275 | 13.0 | 22.0 | 0.00 | 2.02 | 0.05 | 87 | 999.1 |
| 20260504050106 | 38 | 244 | 17.0 | 26.0 | 0.02 | 2.00 | 0.03 | 88 | 996.3 |
| 20260504044600 | 37 | 259 | 13.0 | 24.0 | 0.03 | 2.00 | 0.03 | 89 | 995.9 |
| 20260504043055 | 37 | 279 | 14.0 | 27.0 | 0.02 | 1.99 | 0.02 | 88 | 995.9 |
| 20260504041601 | 37 | 250 | 15.0 | 26.0 | 0.01 | 1.98 | 0.01 | 88 | 995.4 |
| 20260504040057 | 37 | 263 | 15.0 | 31.0 | 0.00 | 1.97 | 0.00 | 88 | 995.3 |
| 20260504034553 | 38 | 265 | 16.0 | 35.0 | 0.00 | 1.96 | 0.00 | 88 | 994.7 |
| 20260504033102 | 37 | 242 | 18.0 | 31.0 | 0.00 | 1.96 | 0.00 | 88 | 994.3 |
| 20260504031553 | 37 | 249 | 14.0 | 29.0 | 0.01 | 1.96 | 0.00 | 88 | 994.2 |
| 20260504030056 | 37 | 288 | 13.0 | 28.0 | 0.01 | 1.96 | 0.00 | 88 | 993.6 |
| 20260504024616 | 37 | 290 | 16.0 | 27.0 | 0.00 | 1.96 | 1.96 | 88 | 993.3 |
| 20260504023053 | 37 | 278 | 14.0 | 29.0 | 0.00 | 1.96 | 1.96 | 88 | 993.0 |
| 20260504021554 | 37 | 246 | 15.0 | 28.0 | 0.00 | 1.95 | 1.95 | 88 | 992.4 |
| 20260504020057 | 36 | 261 | 14.0 | 30.0 | 0.00 | 1.95 | 1.95 | 88 | 991.9 |
| 20260504014604 | 36 | 275 | 12.0 | 28.0 | 0.02 | 1.95 | 1.95 | 88 | 991.7 |
| 20260504013056 | 36 | 259 | 15.0 | 26.0 | 0.05 | 1.95 | 1.95 | 89 | 991.1 |
| 20260504011551 | 36 | 270 | 13.0 | 23.0 | 0.08 | 1.95 | 1.95 | 89 | 990.7 |
| 20260504010112 | 36 | 286 | 11.0 | 31.0 | 0.11 | 1.94 | 1.94 | 89 | 990.3 |
| 20260504004609 | 36 | 245 | 13.0 | 26.0 | 0.10 | 1.92 | 1.92 | 88 | 990.0 |
| 20260504003109 | 37 | 302 | 11.0 | 23.0 | 0.08 | 1.89 | 1.89 | 88 | 989.7 |